Location: Home
(42.5358°N, 72.7383°W)
Time: 11:10:33
(UTC-05:00)

S-56A Canister/Altair - Pass Details

Date: 30 November 2021
Orbit: 634 x 2499 km, 38.9° (Epoch: 22 January)

Event Time Altitude Azimuth Distance (km) Brightness Sun altitude
Rises 21:33:37 0° 186° (S) 5,483 - -56.5°
Reaches altitude 10° 21:41:36 10° 155° (SSE) 3,928 - -57.8°
Maximum altitude 21:43:36 11° 143° (SE) 3,713 - -58.1°
Drops below altitude 10° 21:45:28 10° 131° (SE) 3,618 - -58.4°
Sets 21:51:22 0° 96° (E) 4,084 - -59.3°
